Torna al catalogo

CZ-6A R/B

AttivoLEO
NORAD 100177·ROCKET BODY·🇨🇳 China

Lanciato Jul 30, 2026 da Taiyuan Satellite Launch Center

Loading…

Prossimi Passaggi (prossime 24 ore)

TLE

AggiornatoSource: Space-Track

Epoca: Sep 14, 2026, 14:57 UTC

1 A0177U 26173D   26257.62348356 -.00000139  00000-0 -75917-4 0  9991
2 A0177  64.7965 160.0599 0097364  97.0324 264.1806 13.56154470  6311

Traccia CZ-6A R/B in tempo reale con AllMySat

Download on the App Store